Погода в Бахте

Погода в Бахте : погода сейчас, прогноз погоды и архив. Всё, что Вы хотите узнать о погоде в Бахте!

Поиск расширенной информации на нашем сайте:

Другие новости

Новости СМИ2

Главная страница сайта

Новости сайта

03.07.2017

Напоминаем, что на нашем специализированном сайте Метеоцентр.Азия вы можете получить высокодетализированные автоматические прогнозы погоды по пунктам России, СНГ и мира в авиационном формате (включающие направление и скорость ветра, видимость, явления погоды, количество и форму облачности, нижнюю и верхнюю границу облачности).


Погода в Бахте - сегодня

Время (UTC), дата Ветер
(°,м/с) 
Видим.   Явления Облачность Т
(°С)
Тd
(°С)
f(%) Тe
(°С)
Pmin
(гПа)
dP
(гПа)
Po
(мм)
O2
(г/м3)
Тmin Tmax R s Состояние
почвы
21 23.07.17 тихо ()   20000 м    ясно 
+13.7 +10.5 81 +15  1013.6  -0.4  756  288           
00 24.07.17 тихо ()   20000 м    ясно 
+14.8 +12.2 84 +19  1013.4  -0.2  756  286  +13.7         
03 24.07.17 тихо ()   20000 м    ясно 
+20.2 +12.8 62 +25  1012.7  -0.6  755  281           
06 24.07.17 тихо ()   20000 м    ясно 
+26.8 +12.8 42 +32  1011.3  -1.2  754  274           
09 24.07.17 тихо ()   20000 м    3/0 верхняя 
[Ci sp]
+28.6 +11.5 35 +32  1009.7  -1.6  753  273           
12 24.07.17 тихо ()   20000 м    6/0 верхняя 
[Ci sp]
+27.5 +11 36 +30  1008.7  -1  752  273    +28.6       
15 24.07.17 тихо ()   20000 м    8/0 верхняя 
[Ci]
+23.3 +13.9 56 +30  1008.3  -0.4  752  276           
18 24.07.17 тихо ()   н/о    4/0 верхняя 
[Ci sp]
+16.8 +13.6 81 +23  1008.5  0.1  752  283           
21 24.07.17 тихо ()   20000 м    8/8 600 м 
[Sc]
+15.2 +13.4 89 +21  1007.8  -0.8  752  284           
00 25.07.17 тихо ()   20000 м    4/0 верхняя 
[Ci sp]
+14.7 +13.1 90 +20  1007.7  -0.1  751  285  +14.7         
03 25.07.17 тихо ()   20000 м    8/0 верхняя 
[Ci sp]
+20.4 +17.5 83 +34  1007  -0.5  751  278           
06 25.07.17 тихо ()   20000 м    8/3 600 м верхняя 
[Cu med, cong|Ci sp]
+25.8 +13.6 47 +32  1006.1  -0.9  750  274           
09 25.07.17 140 (ЮВ) 20000 м    9/6 600 м верхняя 
[Cu med, cong|Ci sp]
+26.4 +13.6 45 +33  1004.6  -1.5  749  273           
12 25.07.17 тихо ()   20000 м    8/3 600 м верхняя 
[Cu hum|Ci sp]
+27.2 +12.5 40 +32  1003.9  -0.7  749  272    +27.7       
15 25.07.17 тихо ()   20000 м    9/0 верхняя 
[Ci sp]
+22.8 +12.3 52 +27  1003.1  -0.8  748  276           
18 25.07.17 тихо ()   н/о    8/8 600 м 
[Sc]
+19.5 +14.1 71 +27  1002.9  -0.3  748  278           
21 25.07.17 тихо ()   20000 м    6/6 600 м 
[Sc]
+16.1 +14.5 90 +24  1002.1  -0.8  747  281           
00 26.07.17 тихо ()   20000 м    6/0 верхняя 
[Ci sp]
+17.9 +15.3 85 +27  1002.1  747  279  +16.1         
03 26.07.17 тихо ()   20000 м    8/0 верхняя 
[Ci sp]
+20.8 +15.8 73 +31  1001.7  -0.3  747  276           
06 26.07.17 тихо ()   20000 м    8/3 600 м верхняя 
[Cu med, cong|Ci sp]
+26.4 +17.1 57 +39  1001.3  -0.4  747  271           
09 26.07.17 320 (СЗ) 20000 м  гроза без осадков  8/5 600 м кучево-дожд., верхняя 
[Cb cap|Ci fib]
+23.6 +16.1 63 +34  1001.7  0.4  747  274           
12 26.07.17 260 (З) 20000 м  {гроза}  9/6 600 м кучево-дожд., верхняя 
[Cb cap|Ci sp]
+20.8 +16.3 75 +32  1001.7  747  276    +26.4       
15 26.07.17 тихо ()   20000 м    8/8 600 м кучево-дожд. 
[Cb cap]
+19.8 +17.5 87 +33  1002.6  0.8  748  277           
18 26.07.17 тихо ()   н/о    4/4 600 м кучево-дожд. 
[Cb cap]
+17.5 +16.7 95 +29  1002.6  748  279           
21 26.07.17 тихо ()   20000 м    4/4 600 м кучево-дожд. 
[Cb cap]
+16.8 +16.5 98 +28  1002.8  0.2  748  280           
Время (UTC), дата Ветер
(°,м/с) 
Видим.   Явления Облачность Т
(°С)
Тd
(°С)
f(%) Тe
(°С)
Pmin
(гПа)
dP
(гПа)
Po
(мм)
O2
(г/м3)
Тmin Tmax R s Состояние
почвы

Для получения пояснительной информации подведите курсор к названию столбца.

ПОГОДА в Бахте - архив

Всё, что Вы хотите узнать о погоде в Бахте - удобно и подробно!

Выберите нужную дату (начиная с 1 января 2015* года) и нажмите кнопку "Найти".
Будут отображены архивные сводки погоды по пункту Бахта, начиная с указанной даты.


Отображать данные в формате CSV (для использования в таблицах Excel)


Внимание! Наш архив погоды предназначен исключительно для личного некоммерческого использования в познавательных целях. Если Вам необходимы официальные справки о состоянии погоды (для производственных, юридических, коммерческих и т.п. целей), обращайтесь в органы Росгидромета.

*Примечание: данная дата относится к архиву по метеостанциям СССР (Россия, СНГ, Балтия).
Архив по метеостанциям Зарубежной Европы и Азии (кроме Китая) хранится 10 дней, по другим регионам земного шара (Китай, Африка, Америка, Австралия, Океания) - 1 день.

Бахта - район местоположения метеостанции


Название, широта, долгота, высота метеостанции:
Бахта 62.3°ш. 89.2°д. 58 м над ур. моря [Российская Федерация]

Дополнительная информация

В oтличие oт бoльшинства пoгoдных сайтoв мы публикуем пoдрoбную метеoинфoрмацию в детальнoм прoфессиoнальнoм фoрмате.

Характеристики температуры и влажнoсти вoздуха измеряются на высoте 2 м в тени вдали oт зданий и деревьев.
Скoрoсть ветра измеряется на высoте 10 м (на урoвне рoста челoвека скoрoсть ветра ниже в 1.5-2 раза). Если метеoстанция нахoдится в гoрoде или в лесу, тo скoрoсть ветра занижена на 2-4 м/с пo сравнению с oткрытым местoм. Скoрoсть ветра над акватoриями крупных рек и oзёр, а также на вершинах хoлмoв на 2-5 м/с выше, чем в oбычных услoвиях.
Атмoсфернoе давление в разных тoчках местнoсти мoжет значительнo oтличаться oт давления на метеoстанции, в зависимoсти oт услoвий рельефа (при пoдъёме на 10 м давление пoнижается примернo на 1 мм рт.ст.).